[[{"header":{"parameterUnit":"m.s-1","parameterCategory":1,"la1":30.2991,"la2":30.254,"lo1":-89.0895,"lo2":-89.0444,"dy":0.0017,"dx":0.0017,"nx":28,"ny":28,"refTime":"2024-04-20T03:00:00:Z","depth":0,"parameterNumber":2,"parameterNumberName":"U-component_of_WINDS"},"data":[0,0,0,0,0,0,0,0,0,0,0,0,0,0,0,0,0,0,0,0,0,0,0,0,0,0,0,0,0,0,0,0,0,0,0,0,0,0,0,0,0,0,0,0,0,0,0,0,0,0,0,0,0,0,0,0,0,0,-0.0844,-0.0843,0,-0.0811,-0.081,-0.081,-0.0799,-0.0799,-0.0799,-0.0799,-0.0764,-0.0763,-0.0762,0,0,0,0,0,0,0,0,0,0,0,0,0,-0.0896,-0.0895,-0.0844,-0.0843,-0.0843,-0.0811,-0.081,-0.081,-0.0799,-0.0799,-0.0799,-0.0799,-0.0765,-0.0763,-0.0762,0,0,0,0,0,0,0,0,0,0,0,0,0,-0.0869,-0.0895,-0.0844,-0.0833,-0.0832,-0.0811,-0.081,-0.081,-0.0799,-0.0799,-0.0799,-0.0799,-0.0765,-0.0763,-0.0762,-0.0748,0,0,-0.0757,-0.0756,0,0,0,0,0,0,0,0,-0.0871,-0.0867,-0.0835,-0.0834,-0.0833,-0.0809,-0.0816,-0.0789,-0.0799,-0.0811,-0.0799,-0.08,-0.0779,-0.0776,-0.0769,-0.0746,-0.0744,-0.0757,-0.0756,-0.0755,-0.0755,0,0,0,0,0,0,0,-0.0872,-0.0868,-0.083,-0.0835,-0.0833,-0.083,-0.0827,-0.0811,-0.0794,-0.081,-0.0809,-0.0806,-0.0778,-0.0771,-0.0768,-0.0744,-0.0757,-0.0755,-0.0754,-0.0754,-0.0707,-0.0706,0,0,0,0,0,0,-0.0876,-0.087,-0.0831,-0.0829,-0.0853,-0.0829,-0.0825,-0.0816,-0.0794,-0.0791,-0.0806,-0.0805,-0.0774,-0.077,-0.0767,-0.0749,-0.0755,-0.0754,-0.0753,-0.0707,-0.0707,-0.0706,0,0,0,0,0,0,-0.0877,-0.0873,-0.0833,-0.085,-0.0844,-0.0828,-0.0818,-0.0816,-0.0808,-0.0791,-0.0788,-0.0801,-0.0774,-0.0769,-0.0753,-0.0748,-0.0753,-0.0751,-0.0707,-0.0707,-0.0707,-0.0713,0,0,0,0,0,0,-0.0879,-0.0873,-0.0868,-0.085,-0.0843,-0.0819,-0.0818,-0.0815,-0.0806,-0.0805,-0.0786,-0.0783,-0.0773,-0.0755,-0.0751,-0.0746,-0.075,-0.0708,-0.0707,-0.0707,-0.0713,-0.0713,-0.0712,0,0,0,0,0,-0.0881,-0.0871,-0.0868,-0.0863,-0.0837,-0.0819,-0.0815,-0.0805,-0.0806,-0.08,-0.0789,-0.0784,-0.0749,-0.0753,-0.0749,-0.0743,-0.0708,-0.0707,-0.0707,-0.0713,-0.0713,-0.0712,0,0,0,0,0,0,-0.0889,-0.0868,-0.0865,-0.0849,-0.0836,-0.0817,-0.081,-0.0805,-0.0791,-0.0791,-0.0778,-0.0774,-0.0758,-0.0749,-0.0754,-0.0728,-0.0728,-0.0727,-0.0735,-0.0734,-0.0734,-0.0736,-0.0749,0,0,0,0,0,-0.0889,-0.0877,-0.0859,-0.0847,-0.0841,-0.0826,-0.0818,-0.0811,-0.0797,-0.0791,-0.0779,-0.0765,-0.0751,-0.0742,-0.0728,-0.0711,-0.0707,-0.0705,-0.0705,-0.0704,-0.0703,-0.0694,-0.0693,-0.0704,-0.0704,-0.0704,0,0,-0.0889,-0.0876,-0.0869,-0.0848,-0.0837,-0.0825,-0.0822,-0.0808,-0.0799,-0.0789,-0.0773,-0.0763,-0.0747,-0.073,-0.0722,-0.0721,-0.0699,-0.0704,-0.0704,-0.0703,-0.0693,-0.0692,-0.0691,-0.0704,-0.0704,-0.0704,0,0,-0.0882,-0.0871,-0.086,-0.0849,-0.0833,-0.0823,-0.082,-0.0802,-0.0796,-0.0779,-0.0772,-0.076,-0.0736,-0.0724,-0.0715,-0.0704,-0.0699,-0.07,-0.0698,-0.0689,-0.0688,-0.0687,-0.0683,-0.0682,-0.0698,-0.0698,-0.0698,0,-0.0884,-0.0865,-0.0854,-0.0841,-0.0832,-0.0823,-0.0811,-0.0801,-0.0781,-0.0775,-0.0775,-0.0744,-0.0733,-0.0713,-0.071,-0.0703,-0.0699,-0.0702,-0.0689,-0.0688,-0.0687,-0.0683,-0.0682,-0.0699,-0.0699,-0.0699,-0.0699,0,-0.0868,-0.0855,-0.0847,-0.0829,-0.0819,-0.0806,-0.0793,-0.0784,-0.0778,-0.0768,-0.0751,-0.0737,-0.072,-0.0714,-0.0708,-0.0694,-0.0694,-0.0692,-0.0692,-0.0686,-0.0682,-0.0681,-0.0699,-0.0699,-0.0699,-0.0699,0,0,-0.0866,-0.0841,-0.0839,-0.083,-0.0811,-0.0801,-0.0788,-0.0771,-0.0764,-0.075,-0.0739,-0.0718,-0.0716,-0.0706,-0.0698,-0.069,-0.0682,-0.0688,-0.0688,-0.0688,-0.0665,-0.0667,-0.0666,-0.0678,-0.0678,-0.0678,-0.0666,0,-0.0857,-0.0834,-0.0824,-0.0805,-0.0793,-0.0784,-0.0772,-0.0759,-0.075,-0.0738,-0.0727,-0.0713,-0.0711,-0.0705,-0.0696,-0.0685,-0.0677,-0.0685,-0.0667,-0.0667,-0.0672,-0.0663,-0.0666,-0.0656,-0.0665,-0.0665,-0.0664,0,-0.0844,-0.083,-0.0811,-0.0793,-0.0787,-0.0778,-0.0762,-0.075,-0.0735,-0.0729,-0.0717,-0.071,-0.0695,-0.0696,-0.0676,-0.0681,-0.0673,-0.0666,-0.0666,-0.0664,-0.0665,-0.0661,-0.0653,-0.0651,-0.0662,-0.0662,-0.0662,0,-0.0844,-0.0821,-0.0806,-0.0799,-0.0778,-0.0772,-0.0763,-0.0748,-0.0738,-0.0724,-0.0718,-0.0702,-0.0694,-0.0681,-0.0669,-0.0671,-0.065,-0.065,-0.0644,-0.0645,-0.064,-0.0641,-0.063,-0.0635,-0.0635,-0.0635,-0.0635,0,-0.0835,-0.0824,-0.0807,-0.0798,-0.0784,-0.0772,-0.0759,-0.0749,-0.0736,-0.0724,-0.0715,-0.0704,-0.0689,-0.0677,-0.0667,-0.0652,-0.0648,-0.0642,-0.064,-0.0643,-0.0644,-0.0638,-0.0638,-0.0635,-0.0635,-0.0635,-0.0635,0,-0.0834,-0.0822,-0.0806,-0.0787,-0.0782,-0.0773,-0.0757,-0.0748,-0.0738,-0.0723,-0.0719,-0.0703,-0.0688,-0.0675,-0.0654,-0.0648,-0.0632,-0.0629,-0.0637,-0.0636,-0.0631,-0.0632,-0.0616,-0.0614,-0.062,-0.062,-0.062,0,-0.083,-0.0821,-0.0801,-0.0793,-0.0784,-0.0771,-0.0762,-0.0749,-0.074,-0.0722,-0.0715,-0.0698,-0.0685,-0.066,-0.0647,-0.0631,-0.0628,-0.0623,-0.0625,-0.0629,-0.0628,-0.0629,-0.0628,-0.0623,-0.0623,-0.0623,-0.0623,0,-0.0823,-0.0817,-0.0804,-0.0789,-0.0778,-0.0766,-0.0753,-0.0746,-0.0732,-0.0721,-0.0705,-0.0695,-0.0674,-0.0658,-0.0641,-0.0631,-0.0625,-0.0623,-0.0621,-0.0624,-0.0629,-0.0626,-0.0637,-0.0623,-0.0623,-0.0623,-0.0623,-0.0623,-0.082,-0.0811,-0.0796,-0.0782,-0.0771,-0.0759,-0.075,-0.0738,-0.0725,-0.0708,-0.0701,-0.0685,-0.0669,-0.0645,-0.0635,-0.0622,-0.0621,-0.0618,-0.0617,-0.0617,-0.0617,-0.0631,-0.0619,-0.0619,-0.0619,-0.0619,-0.0619,0,-0.0812,-0.0802,-0.079,-0.0772,-0.0761,-0.0756,-0.0741,-0.0732,-0.0718,-0.0704,-0.0691,-0.0673,-0.0657,-0.0643,-0.0626,-0.0618,-0.0615,-0.0614,-0.0615,-0.0613,-0.0619,-0.0623,-0.0617,-0.0617,-0.0617,-0.0617,-0.0617,-0.0617,-0.0807,-0.0793,-0.0785,-0.0765,-0.0755,-0.0739,-0.0731,-0.072,-0.0709,-0.0689,-0.0676,-0.0667,-0.0653,-0.0635,-0.062,-0.0616,-0.061,-0.0611,-0.0606,-0.0612,-0.0612,-0.0613,-0.0616,-0.061,-0.061,-0.0601,-0.0601,-0.0601]},{"header":{"parameterUnit":"m.s-1","parameterCategory":1,"la1":30.2991,"la2":30.254,"lo1":-89.0895,"lo2":-89.0444,"dy":0.0017,"dx":0.0017,"nx":28,"ny":28,"refTime":"2024-04-20T03:00:00:Z","depth":0,"parameterNumber":3,"parameterNumberName":"V-component_of_WINDS"},"data":[0,0,0,0,0,0,0,0,0,0,0,0,0,0,0,0,0,0,0,0,0,0,0,0,0,0,0,0,0,0,0,0,0,0,0,0,0,0,0,0,0,0,0,0,0,0,0,0,0,0,0,0,0,0,0,0,0,0,-7.6067,-7.6067,0,-7.6129,-7.613,-7.6131,-7.6067,-7.6065,-7.6062,-7.606,-7.6117,-7.612,-7.6124,0,0,0,0,0,0,0,0,0,0,0,0,0,-7.5885,-7.5888,-7.6067,-7.6067,-7.6068,-7.6129,-7.613,-7.6131,-7.6068,-7.6065,-7.6062,-7.6059,-7.6115,-7.612,-7.6124,0,0,0,0,0,0,0,0,0,0,0,0,0,-7.5957,-7.589,-7.6066,-7.6044,-7.6043,-7.6129,-7.613,-7.6131,-7.6068,-7.6065,-7.6061,-7.6058,-7.6114,-7.6119,-7.6125,-7.6234,0,0,-7.6142,-7.6145,0,0,0,0,0,0,0,0,-7.5953,-7.5964,-7.6047,-7.6046,-7.6045,-7.6087,-7.6087,-7.6165,-7.6069,-7.6058,-7.606,-7.6056,-7.6109,-7.6115,-7.6135,-7.6237,-7.6239,-7.6143,-7.6146,-7.6149,-7.6151,0,0,0,0,0,0,0,-7.5948,-7.5961,-7.6091,-7.6048,-7.6047,-7.6029,-7.6035,-7.6101,-7.6103,-7.6059,-7.6055,-7.6063,-7.6108,-7.6129,-7.6136,-7.624,-7.6143,-7.6148,-7.6151,-7.6154,-7.6434,-7.6438,0,0,0,0,0,0,-7.5947,-7.5957,-7.6089,-7.6093,-7.5989,-7.6035,-7.6042,-7.6077,-7.6103,-7.6103,-7.6067,-7.606,-7.6121,-7.6129,-7.6137,-7.6266,-7.6149,-7.6154,-7.6157,-7.643,-7.6435,-7.6439,0,0,0,0,0,0,-7.5943,-7.5959,-7.6087,-7.6024,-7.6039,-7.6042,-7.6082,-7.608,-7.6102,-7.6108,-7.6108,-7.6089,-7.6119,-7.6129,-7.6211,-7.6267,-7.6157,-7.6162,-7.6425,-7.6432,-7.6437,-7.6526,0,0,0,0,0,0,-7.5938,-7.5958,-7.6001,-7.6025,-7.6042,-7.6162,-7.6085,-7.6084,-7.6112,-7.6105,-7.6129,-7.6129,-7.6117,-7.6203,-7.6217,-7.6273,-7.6166,-7.642,-7.6428,-7.6435,-7.6518,-7.6534,-7.6548,0,0,0,0,0,-7.5932,-7.6022,-7.6004,-7.602,-7.6097,-7.6165,-7.6174,-7.616,-7.6117,-7.6159,-7.6164,-7.6128,-7.626,-7.6212,-7.6227,-7.6286,-7.6417,-7.6426,-7.6435,-7.6511,-7.6531,-7.6548,0,0,0,0,0,0,-7.6,-7.6024,-7.6004,-7.6106,-7.6134,-7.6154,-7.6207,-7.6182,-7.6221,-7.6212,-7.6191,-7.6197,-7.6283,-7.6293,-7.6239,-7.6393,-7.6331,-7.6343,-7.6383,-7.6402,-7.6417,-7.6413,-7.6171,0,0,0,0,0,-7.6028,-7.6084,-7.6101,-7.6188,-7.6204,-7.6203,-7.6232,-7.622,-7.6247,-7.6258,-7.6268,-7.6294,-7.6341,-7.6372,-7.6416,-7.6519,-7.6523,-7.6567,-7.6583,-7.6595,-7.6606,-7.6661,-7.668,-7.6469,-7.6469,-7.6469,0,0,-7.6084,-7.6104,-7.614,-7.6203,-7.6223,-7.6279,-7.6214,-7.6276,-7.6317,-7.6266,-7.6345,-7.6354,-7.6381,-7.6474,-7.6516,-7.6485,-7.6665,-7.6607,-7.6616,-7.662,-7.6672,-7.6692,-7.671,-7.6475,-7.6474,-7.6473,0,0,-7.6215,-7.6237,-7.6312,-7.6335,-7.6368,-7.6368,-7.6386,-7.6411,-7.6415,-7.6495,-7.6458,-7.6505,-7.6587,-7.6608,-7.663,-7.6771,-7.674,-7.6786,-7.6864,-7.6918,-7.6935,-7.6949,-7.6999,-7.7017,-7.6796,-7.6797,-7.6797,0,-7.628,-7.6366,-7.6353,-7.6419,-7.6447,-7.6408,-7.6483,-7.6505,-7.6549,-7.6568,-7.6534,-7.6636,-7.6652,-7.6749,-7.6784,-7.6803,-7.6822,-7.6782,-7.6934,-7.6948,-7.6962,-7.7009,-7.7028,-7.6802,-7.6801,-7.6801,-7.68,0,-7.6444,-7.6504,-7.656,-7.6608,-7.6643,-7.6713,-7.6708,-7.6744,-7.6729,-7.6732,-7.6812,-7.683,-7.6877,-7.6899,-7.6883,-7.6995,-7.6975,-7.6938,-7.6874,-7.6988,-7.7032,-7.705,-7.681,-7.6808,-7.6806,-7.6805,0,0,-7.6617,-7.666,-7.6681,-7.6702,-7.6737,-7.6782,-7.685,-7.6899,-7.6929,-7.6962,-7.7017,-7.7088,-7.7054,-7.7079,-7.7065,-7.7113,-7.7223,-7.707,-7.707,-7.7097,-7.7346,-7.7373,-7.7395,-7.7203,-7.7207,-7.7209,-7.7344,0,-7.6749,-7.6871,-7.6862,-7.6975,-7.703,-7.6994,-7.7053,-7.7079,-7.7084,-7.7129,-7.7132,-7.7183,-7.7136,-7.715,-7.7196,-7.72,-7.7273,-7.7191,-7.7252,-7.7255,-7.7246,-7.7418,-7.7446,-7.7572,-7.7361,-7.7364,-7.7366,0,-7.6919,-7.6961,-7.7081,-7.7109,-7.7131,-7.7185,-7.7229,-7.7274,-7.7302,-7.7302,-7.7331,-7.731,-7.7376,-7.7313,-7.7403,-7.7347,-7.7372,-7.7378,-7.7383,-7.7387,-7.7316,-7.7426,-7.7612,-7.7631,-7.7393,-7.7391,-7.7389,0,-7.7034,-7.712,-7.7203,-7.7222,-7.7257,-7.7295,-7.7311,-7.7336,-7.7367,-7.7404,-7.7423,-7.7468,-7.7491,-7.7525,-7.7516,-7.7471,-7.7608,-7.7544,-7.7608,-7.7608,-7.7637,-7.7635,-7.7829,-7.7655,-7.7655,-7.7654,-7.7654,0,-7.7181,-7.7255,-7.7255,-7.7306,-7.7388,-7.7376,-7.7457,-7.7467,-7.7491,-7.7541,-7.7512,-7.756,-7.7545,-7.7591,-7.7584,-7.766,-7.7671,-7.7671,-7.7668,-7.7673,-7.7673,-7.7688,-7.7679,-7.7659,-7.7658,-7.7657,-7.7657,0,-7.7322,-7.7325,-7.7413,-7.744,-7.7448,-7.7507,-7.7529,-7.7576,-7.7579,-7.7643,-7.7657,-7.7661,-7.7714,-7.7709,-7.7768,-7.7763,-7.7856,-7.7843,-7.7848,-7.7844,-7.7908,-7.7902,-7.8118,-7.8145,-7.7954,-7.7956,-7.7958,0,-7.7416,-7.7473,-7.7507,-7.754,-7.756,-7.7613,-7.7645,-7.7636,-7.7669,-7.7708,-7.775,-7.7801,-7.7841,-7.7928,-7.7934,-7.7979,-7.7966,-7.8038,-7.7972,-7.7976,-7.7966,-7.7962,-7.7968,-7.8051,-7.8053,-7.8055,-7.8056,0,-7.7581,-7.7581,-7.7629,-7.7679,-7.7718,-7.7756,-7.779,-7.7818,-7.7812,-7.7851,-7.7907,-7.7939,-7.8,-7.8051,-7.8094,-7.8107,-7.808,-7.8078,-7.8095,-7.81,-7.81,-7.81,-7.7882,-7.8072,-7.8071,-7.8069,-7.8068,-7.8068,-7.7701,-7.775,-7.7783,-7.7837,-7.7863,-7.7896,-7.7942,-7.7952,-7.8,-7.8051,-7.8042,-7.8105,-7.8132,-7.8187,-7.8205,-7.8252,-7.8225,-7.825,-7.8256,-7.8262,-7.827,-7.8094,-7.826,-7.8259,-7.8259,-7.8258,-7.8258,0,-7.7864,-7.7884,-7.7935,-7.7986,-7.8029,-7.8004,-7.8041,-7.8077,-7.8134,-7.8163,-7.8205,-7.8269,-7.8318,-7.833,-7.8376,-7.8412,-7.8401,-7.8424,-7.8421,-7.8424,-7.8291,-7.8271,-7.8433,-7.8433,-7.8432,-7.8432,-7.8432,-7.8432,-7.7954,-7.8037,-7.804,-7.8134,-7.8152,-7.8216,-7.8239,-7.8269,-7.8293,-7.8367,-7.8409,-7.8417,-7.8439,-7.8487,-7.8531,-7.8533,-7.8551,-7.8579,-7.8576,-7.8451,-7.8434,-7.8417,-7.8398,-7.8583,-7.8584,-7.8705,-7.8706,-7.8707]}]]